Location: Brad
(46.1333°N, 22.7833°E)
Time: 06:01:46
(UTC+00:00)

Cosmos 2333 Rocket - Pass Details

Date: 03 February 2023
Orbit: 837 x 864 km, 70.8° (Epoch: 29 March)

Event Time Altitude Azimuth Distance (km) Brightness Sun altitude
Rises 16:28:53 0° 168° (SSE) 3,375 5.4 -9.5°
Reaches altitude 10° 16:31:42 10° 155° (SSE) 2,448 4.5 -9.9°
Maximum altitude 16:36:09 25° 102° (ESE) 1,646 3.2 -10.7°
Enters shadow 16:40:14 12° 52° (NE) 2,349 4.0 -11.4°
